Time,TemperatureF,DewpointF,PressureIn,WindDirection,WindDirectionDegrees,WindSpeedMPH,WindSpeedGustMPH,Humidity,HourlyPrecipIn,Conditions,Clouds,dailyrainin,SoftwareType,DateUTC
2013-04-30 00:00:00,43.3,33.1,30.06,WNW,292,3.1,4.5,67,0.00,,,0.00,pywws,2013-04-29 23:00:00,
2013-04-30 00:02:00,43.3,33.1,30.04,West,270,1.6,3.1,67,0.00,,,0.00,pywws,2013-04-29 23:02:00,
2013-04-30 00:04:00,43.3,33.1,30.06,WNW,292,3.1,4.5,67,0.00,,,0.00,pywws,2013-04-29 23:04:00,
2013-04-30 00:09:00,43.2,33.0,30.06,West,270,1.6,3.8,67,0.00,,,0.00,pywws,2013-04-29 23:09:00,
2013-04-30 00:13:00,43.3,33.1,30.06,WNW,292,3.1,4.5,67,0.00,,,0.00,pywws,2013-04-29 23:13:00,
2013-04-30 00:15:00,43.0,32.8,30.06,South,180,0.7,2.2,67,0.00,,,0.00,pywws,2013-04-29 23:15:00,
2013-04-30 00:20:00,42.8,32.6,30.07,NW,315,0.7,2.2,67,0.00,,,0.00,pywws,2013-04-29 23:20:00,
2013-04-30 00:22:00,43.0,32.8,30.06,South,180,0.7,2.2,67,0.00,,,0.00,pywws,2013-04-29 23:22:00,
2013-04-30 00:25:00,42.8,32.6,30.07,NW,315,1.6,3.8,67,0.00,,,0.00,pywws,2013-04-29 23:25:00,
2013-04-30 00:30:00,42.6,32.4,30.07,WSW,248,0.7,1.6,67,0.00,,,0.00,pywws,2013-04-29 23:30:00,
2013-04-30 00:34:00,42.8,32.6,30.07,NW,315,1.6,3.8,67,0.00,,,0.00,pywws,2013-04-29 23:34:00,
2013-04-30 00:35:00,42.4,32.3,30.07,West,270,3.1,6.0,67,0.00,,,0.00,pywws,2013-04-29 23:35:00,
2013-04-30 00:40:00,42.3,32.1,30.08,West,270,1.6,3.1,67,0.00,,,0.00,pywws,2013-04-29 23:40:00,
2013-04-30 00:42:00,42.4,32.3,30.07,West,270,3.1,6.0,67,0.00,,,0.00,pywws,2013-04-29 23:42:00,
2013-04-30 00:44:00,42.3,32.1,30.08,NW,315,2.2,6.0,67,0.00,,,0.00,pywws,2013-04-29 23:44:00,
2013-04-30 00:49:00,42.1,32.3,30.08,WSW,248,1.6,3.8,68,0.00,,,0.00,pywws,2013-04-29 23:49:00,
2013-04-30 00:54:00,41.9,32.1,30.09,North,0,2.2,3.8,68,0.00,,,0.00,pywws,2013-04-29 23:54:00,
2013-04-30 00:59:00,41.9,32.1,30.09,WSW,248,3.1,5.4,68,0.00,,,0.00,pywws,2013-04-29 23:59:00,
2013-04-30 01:04:00,41.9,32.1,30.09,WSW,248,3.1,5.4,68,0.00,,,0.00,pywws,2013-04-30 00:04:00,
2013-04-30 01:09:00,41.9,32.5,30.09,NW,315,3.8,7.6,69,0.00,,,0.00,pywws,2013-04-30 00:09:00,
2013-04-30 01:14:00,41.9,32.5,30.09,WSW,248,3.1,6.9,69,0.00,,,0.00,pywws,2013-04-30 00:14:00,
2013-04-30 01:19:00,41.9,32.5,30.09,WSW,248,2.2,4.5,69,0.00,,,0.00,pywws,2013-04-30 00:19:00,
2013-04-30 01:24:00,41.9,32.5,30.10,West,270,3.1,4.5,69,0.00,,,0.00,pywws,2013-04-30 00:24:00,
2013-04-30 01:29:00,41.9,32.5,30.10,West,270,1.6,3.1,69,0.00,,,0.00,pywws,2013-04-30 00:29:00,
2013-04-30 01:34:00,41.7,32.3,30.11,WSW,248,0.7,2.2,69,0.00,,,0.00,pywws,2013-04-30 00:34:00,
2013-04-30 01:39:00,41.7,31.9,30.11,West,270,0.7,3.1,68,0.00,,,0.00,pywws,2013-04-30 00:39:00,
2013-04-30 01:44:00,41.5,31.8,30.11,WSW,248,2.2,4.5,68,0.00,,,0.00,pywws,2013-04-30 00:44:00,
2013-04-30 01:49:00,41.4,31.6,30.11,West,270,1.6,3.8,68,0.00,,,0.00,pywws,2013-04-30 00:49:00,
2013-04-30 01:54:00,41.2,31.4,30.11,NW,315,2.2,3.8,68,0.00,,,0.00,pywws,2013-04-30 00:54:00,
2013-04-30 01:59:00,41.0,31.3,30.12,WNW,292,1.6,3.8,68,0.00,,,0.00,pywws,2013-04-30 00:59:00,
2013-04-30 02:04:00,41.0,31.3,30.12,WNW,292,1.6,3.8,68,0.00,,,0.00,pywws,2013-04-30 01:04:00,
2013-04-30 02:09:00,40.8,31.4,30.12,West,270,3.1,4.5,69,0.00,,,0.00,pywws,2013-04-30 01:09:00,
2013-04-30 02:14:00,40.8,31.4,30.12,West,270,1.6,3.8,69,0.00,,,0.00,pywws,2013-04-30 01:14:00,
2013-04-30 02:19:00,40.8,31.4,30.13,West,270,2.2,4.5,69,0.00,,,0.00,pywws,2013-04-30 01:19:00,
2013-04-30 02:24:00,40.6,31.3,30.12,West,270,1.6,3.1,69,0.00,,,0.00,pywws,2013-04-30 01:24:00,
2013-04-30 02:29:00,40.6,31.3,30.12,WSW,248,0.7,2.2,69,0.00,,,0.00,pywws,2013-04-30 01:29:00,
2013-04-30 02:34:00,40.5,31.1,30.13,West,270,0.7,2.2,69,0.00,,,0.00,pywws,2013-04-30 01:34:00,
2013-04-30 02:39:00,40.3,30.9,30.14,WSW,248,0.0,1.6,69,0.00,,,0.00,pywws,2013-04-30 01:39:00,
2013-04-30 02:44:00,40.1,30.8,30.14,WSW,248,1.6,3.1,69,0.00,,,0.00,pywws,2013-04-30 01:44:00,
2013-04-30 02:49:00,39.7,30.4,30.14,WSW,248,1.6,2.2,69,0.00,,,0.00,pywws,2013-04-30 01:49:00,
2013-04-30 02:54:00,39.6,30.2,30.14,WSW,248,0.7,2.2,69,0.00,,,0.00,pywws,2013-04-30 01:54:00,
2013-04-30 02:59:00,39.2,29.9,30.14,West,270,0.7,1.6,69,0.00,,,0.00,pywws,2013-04-30 01:59:00,
2013-04-30 03:04:00,39.2,29.9,30.14,West,270,0.7,1.6,69,0.00,,,0.00,pywws,2013-04-30 02:04:00,
2013-04-30 03:09:00,38.8,29.6,30.15,WSW,248,1.6,3.1,69,0.00,,,0.00,pywws,2013-04-30 02:09:00,
2013-04-30 03:14:00,38.7,29.7,30.15,West,270,2.2,3.8,70,0.00,,,0.00,pywws,2013-04-30 02:14:00,
2013-04-30 03:19:00,38.7,29.7,30.15,NW,315,2.2,3.8,70,0.00,,,0.00,pywws,2013-04-30 02:19:00,
2013-04-30 03:24:00,38.7,29.7,30.15,West,270,1.6,2.2,70,0.00,,,0.00,pywws,2013-04-30 02:24:00,
2013-04-30 03:29:00,38.7,29.7,30.15,NW,315,1.6,3.1,70,0.00,,,0.00,pywws,2013-04-30 02:29:00,
2013-04-30 03:34:00,38.7,30.1,30.15,West,270,2.2,3.8,71,0.00,,,0.00,pywws,2013-04-30 02:34:00,
2013-04-30 03:39:00,38.8,29.9,30.16,NW,315,1.6,4.5,70,0.00,,,0.00,pywws,2013-04-30 02:39:00,
2013-04-30 03:44:00,38.7,30.1,30.16,NW,315,3.1,5.4,71,0.00,,,0.00,pywws,2013-04-30 02:44:00,
2013-04-30 03:49:00,38.8,30.3,30.16,WSW,248,1.6,5.4,71,0.00,,,0.00,pywws,2013-04-30 02:49:00,
2013-04-30 03:54:00,38.8,30.3,30.16,SE,135,3.1,6.0,71,0.00,,,0.00,pywws,2013-04-30 02:54:00,
2013-04-30 03:59:00,39.0,30.4,30.16,West,270,3.1,6.0,71,0.00,,,0.00,pywws,2013-04-30 02:59:00,
2013-04-30 04:04:00,39.0,30.4,30.16,West,270,3.1,6.0,71,0.00,,,0.00,pywws,2013-04-30 03:04:00,
2013-04-30 04:09:00,39.4,30.8,30.16,West,270,3.1,5.4,71,0.00,,,0.00,pywws,2013-04-30 03:09:00,
2013-04-30 04:14:00,39.4,30.8,30.16,NW,315,3.1,5.4,71,0.00,,,0.00,pywws,2013-04-30 03:14:00,
2013-04-30 04:19:00,39.6,30.9,30.17,NW,315,3.1,5.4,71,0.00,,,0.00,pywws,2013-04-30 03:19:00,
2013-04-30 04:24:00,39.7,31.1,30.17,NW,315,2.2,4.5,71,0.00,,,0.00,pywws,2013-04-30 03:24:00,
2013-04-30 04:29:00,39.7,31.1,30.17,WSW,248,1.6,3.8,71,0.00,,,0.00,pywws,2013-04-30 03:29:00,
2013-04-30 04:34:00,39.6,30.9,30.18,NW,315,1.6,3.8,71,0.00,,,0.00,pywws,2013-04-30 03:34:00,
2013-04-30 04:39:00,39.4,30.4,30.18,West,270,1.6,3.1,70,0.00,,,0.00,pywws,2013-04-30 03:39:00,
2013-04-30 04:44:00,39.2,30.3,30.18,South,180,1.6,3.1,70,0.00,,,0.00,pywws,2013-04-30 03:44:00,
2013-04-30 04:49:00,39.0,30.1,30.18,West,270,2.2,6.0,70,0.00,,,0.00,pywws,2013-04-30 03:49:00,
2013-04-30 04:54:00,38.7,29.7,30.19,WSW,248,3.1,4.5,70,0.00,,,0.00,pywws,2013-04-30 03:54:00,
2013-04-30 04:59:00,38.5,29.9,30.19,WSW,248,3.1,4.5,71,0.00,,,0.00,pywws,2013-04-30 03:59:00,
2013-04-30 05:04:00,38.3,29.7,30.19,WSW,248,3.8,5.4,71,0.00,,,0.00,pywws,2013-04-30 04:04:00,
2013-04-30 05:09:00,38.1,29.6,30.19,WSW,248,3.1,5.4,71,0.00,,,0.00,pywws,2013-04-30 04:09:00,
2013-04-30 05:14:00,37.9,29.4,30.19,WSW,248,1.6,3.8,71,0.00,,,0.00,pywws,2013-04-30 04:14:00,
2013-04-30 05:19:00,37.8,29.6,30.19,WSW,248,2.2,3.8,72,0.00,,,0.00,pywws,2013-04-30 04:19:00,
2013-04-30 05:24:00,37.8,29.6,30.20,WSW,248,1.6,3.1,72,0.00,,,0.00,pywws,2013-04-30 04:24:00,
2013-04-30 05:29:00,37.6,29.4,30.20,NW,315,2.2,3.8,72,0.00,,,0.00,pywws,2013-04-30 04:29:00,
2013-04-30 05:34:00,37.6,29.7,30.20,West,270,1.6,3.1,73,0.00,,,0.00,pywws,2013-04-30 04:34:00,
2013-04-30 05:39:00,37.6,29.7,30.21,WSW,248,1.6,2.2,73,0.00,,,0.00,pywws,2013-04-30 04:39:00,
2013-04-30 05:44:00,37.4,29.5,30.21,NW,315,0.7,1.6,73,0.00,,,0.00,pywws,2013-04-30 04:44:00,
2013-04-30 05:49:00,37.4,29.5,30.21,West,270,0.7,2.2,73,0.00,,,0.00,pywws,2013-04-30 04:49:00,
2013-04-30 05:54:00,37.2,29.4,30.21,West,270,0.7,2.2,73,0.00,,,0.00,pywws,2013-04-30 04:54:00,
2013-04-30 05:59:00,37.2,29.7,30.21,West,270,1.6,3.8,74,0.00,,,0.00,pywws,2013-04-30 04:59:00,
2013-04-30 06:04:00,37.2,29.7,30.22,West,270,1.6,3.8,74,0.00,,,0.00,pywws,2013-04-30 05:04:00,
2013-04-30 06:09:00,37.4,29.9,30.22,NW,315,1.6,3.8,74,0.00,,,0.00,pywws,2013-04-30 05:09:00,
2013-04-30 06:14:00,37.6,30.1,30.22,West,270,1.6,4.5,74,0.00,,,0.00,pywws,2013-04-30 05:14:00,
2013-04-30 06:19:00,37.6,30.1,30.22,West,270,3.1,5.4,74,0.00,,,0.00,pywws,2013-04-30 05:19:00,
2013-04-30 06:24:00,37.6,30.4,30.23,North,0,1.6,3.1,75,0.00,,,0.00,pywws,2013-04-30 05:24:00,
2013-04-30 06:29:00,37.8,30.6,30.23,West,270,2.2,3.1,75,0.00,,,0.00,pywws,2013-04-30 05:29:00,
2013-04-30 06:34:00,37.9,30.7,30.23,NW,315,2.2,4.5,75,0.00,,,0.00,pywws,2013-04-30 05:34:00,
2013-04-30 06:39:00,38.1,30.9,30.23,West,270,1.6,3.1,75,0.00,,,0.00,pywws,2013-04-30 05:39:00,
2013-04-30 06:44:00,38.3,31.1,30.23,WSW,248,0.7,2.2,75,0.00,,,0.00,pywws,2013-04-30 05:44:00,
2013-04-30 06:49:00,38.5,31.3,30.24,NW,315,1.6,4.5,75,0.00,,,0.00,pywws,2013-04-30 05:49:00,
2013-04-30 06:54:00,38.8,31.6,30.23,West,270,2.2,4.5,75,0.00,,,0.00,pywws,2013-04-30 05:54:00,
2013-04-30 06:59:00,39.0,31.8,30.23,West,270,2.2,4.5,75,0.00,,,0.00,pywws,2013-04-30 05:59:00,
2013-04-30 07:04:00,39.0,31.8,30.23,West,270,2.2,4.5,75,0.00,,,0.00,pywws,2013-04-30 06:04:00,
2013-04-30 07:09:00,39.9,32.6,30.24,West,270,1.6,3.1,75,0.00,,,0.00,pywws,2013-04-30 06:09:00,
2013-04-30 07:14:00,40.5,32.8,30.24,West,270,0.0,0.7,74,0.00,,,0.00,pywws,2013-04-30 06:14:00,
2013-04-30 07:19:00,40.8,33.2,30.24,West,270,3.1,5.4,74,0.00,,,0.00,pywws,2013-04-30 06:19:00,
2013-04-30 07:24:00,41.2,33.5,30.24,WSW,248,1.6,3.1,74,0.00,,,0.00,pywws,2013-04-30 06:24:00,
2013-04-30 07:29:00,41.7,34.1,30.24,WSW,248,2.2,4.5,74,0.00,,,0.00,pywws,2013-04-30 06:29:00,
2013-04-30 07:34:00,42.3,34.6,30.24,WSW,248,1.6,3.1,74,0.00,,,0.00,pywws,2013-04-30 06:34:00,
2013-04-30 07:39:00,42.6,34.6,30.24,West,270,1.6,3.1,73,0.00,,,0.00,pywws,2013-04-30 06:39:00,
2013-04-30 07:44:00,43.0,34.9,30.24,WSW,248,0.0,0.0,73,0.00,,,0.00,pywws,2013-04-30 06:44:00,
2013-04-30 07:49:00,43.5,35.1,30.25,North,0,3.1,5.4,72,0.00,,,0.00,pywws,2013-04-30 06:49:00,
2013-04-30 07:54:00,44.1,35.3,30.25,NW,315,1.6,4.5,71,0.00,,,0.00,pywws,2013-04-30 06:54:00,
2013-04-30 07:59:00,44.4,35.3,30.25,North,0,1.6,4.5,70,0.00,,,0.00,pywws,2013-04-30 06:59:00,
2013-04-30 08:04:00,44.4,35.3,30.25,North,0,1.6,4.5,70,0.00,,,0.00,pywws,2013-04-30 07:04:00,
2013-04-30 08:09:00,45.5,35.2,30.26,South,180,0.7,3.1,67,0.00,,,0.00,pywws,2013-04-30 07:09:00,
2013-04-30 08:14:00,46.0,35.3,30.26,South,180,1.6,3.1,66,0.00,,,0.00,pywws,2013-04-30 07:14:00,
2013-04-30 08:19:00,46.8,35.6,30.26,NW,315,1.6,4.5,65,0.00,,,0.00,pywws,2013-04-30 07:19:00,
2013-04-30 08:24:00,47.1,35.6,30.26,NW,315,0.0,1.6,64,0.00,,,0.00,pywws,2013-04-30 07:24:00,
2013-04-30 08:29:00,47.7,35.7,30.26,North,0,1.6,3.1,63,0.00,,,0.00,pywws,2013-04-30 07:29:00,
2013-04-30 08:34:00,48.0,35.6,30.26,WSW,248,2.2,4.5,62,0.00,,,0.00,pywws,2013-04-30 07:34:00,
2013-04-30 08:39:00,48.4,35.1,30.26,South,180,3.1,4.5,60,0.00,,,0.00,pywws,2013-04-30 07:39:00,
2013-04-30 08:44:00,48.9,35.7,30.26,NW,315,3.1,5.4,60,0.00,,,0.00,pywws,2013-04-30 07:44:00,
2013-04-30 08:49:00,49.5,35.3,30.26,WSW,248,3.8,6.9,58,0.00,,,0.00,pywws,2013-04-30 07:49:00,
2013-04-30 08:54:00,49.8,35.6,30.26,WSW,248,3.1,7.6,58,0.00,,,0.00,pywws,2013-04-30 07:54:00,
2013-04-30 08:59:00,50.4,35.7,30.27,West,270,1.6,4.5,57,0.00,,,0.00,pywws,2013-04-30 07:59:00,
2013-04-30 09:04:00,50.4,35.7,30.26,West,270,1.6,4.5,57,0.00,,,0.00,pywws,2013-04-30 08:04:00,
2013-04-30 09:09:00,51.3,36.1,30.26,South,180,2.2,3.1,56,0.00,,,0.00,pywws,2013-04-30 08:09:00,
2013-04-30 09:14:00,51.8,36.6,30.27,West,270,3.1,5.4,56,0.00,,,0.00,pywws,2013-04-30 08:14:00,
2013-04-30 09:19:00,52.2,36.5,30.27,East,90,1.6,3.8,55,0.00,,,0.00,pywws,2013-04-30 08:19:00,
2013-04-30 09:24:00,52.5,36.4,30.27,WSW,248,2.2,5.4,54,0.00,,,0.00,pywws,2013-04-30 08:24:00,
2013-04-30 09:29:00,52.9,36.2,30.27,NW,315,1.6,3.1,53,0.00,,,0.00,pywws,2013-04-30 08:29:00,
2013-04-30 09:34:00,52.5,36.4,30.27,WSW,248,2.2,5.4,54,0.00,,,0.00,pywws,2013-04-30 08:34:00,
2013-04-30 09:35:00,53.2,35.6,30.27,WSW,248,0.7,3.1,51,0.00,,,0.00,pywws,2013-04-30 08:35:00,
2013-04-30 09:40:00,53.6,35.9,30.27,NW,315,1.6,3.8,51,0.00,,,0.00,pywws,2013-04-30 08:40:00,
2013-04-30 09:42:00,53.2,35.6,30.27,WSW,248,0.7,3.1,51,0.00,,,0.00,pywws,2013-04-30 08:42:00,
2013-04-30 09:44:00,54.1,36.4,30.27,West,270,1.6,3.1,51,0.00,,,0.00,pywws,2013-04-30 08:44:00,
2013-04-30 09:49:00,54.5,35.7,30.27,WSW,248,0.7,2.2,49,0.00,,,0.00,pywws,2013-04-30 08:49:00,
2013-04-30 09:53:00,54.1,36.4,30.27,West,270,1.6,3.1,51,0.00,,,0.00,pywws,2013-04-30 08:53:00,
2013-04-30 09:55:00,54.9,35.5,30.27,NW,315,3.1,4.5,48,0.00,,,0.00,pywws,2013-04-30 08:55:00,
2013-04-30 10:00:00,55.4,36.0,30.27,NW,315,1.6,5.4,48,0.00,,,0.00,pywws,2013-04-30 09:00:00,
2013-04-30 10:02:00,54.9,35.5,30.27,NW,315,3.1,4.5,48,0.00,,,0.00,pywws,2013-04-30 09:02:00,
2013-04-30 10:04:00,55.8,35.8,30.27,WSW,248,2.2,3.8,47,0.00,,,0.00,pywws,2013-04-30 09:04:00,
2013-04-30 10:09:00,55.8,34.7,30.27,South,180,1.6,3.8,45,0.00,,,0.00,pywws,2013-04-30 09:09:00,
2013-04-30 10:13:00,55.8,35.8,30.27,WSW,248,2.2,3.8,47,0.00,,,0.00,pywws,2013-04-30 09:13:00,
2013-04-30 10:15:00,56.1,35.1,30.27,WSW,248,2.2,6.0,45,0.00,,,0.00,pywws,2013-04-30 09:15:00,
2013-04-30 10:20:00,56.3,35.2,30.27,West,270,0.7,2.2,45,0.00,,,0.00,pywws,2013-04-30 09:20:00,
2013-04-30 10:22:00,56.1,35.1,30.27,WSW,248,2.2,6.0,45,0.00,,,0.00,pywws,2013-04-30 09:22:00,
2013-04-30 10:25:00,56.7,35.0,30.27,West,270,1.6,3.8,44,0.00,,,0.00,pywws,2013-04-30 09:25:00,
2013-04-30 10:30:00,56.8,34.6,30.27,NW,315,1.6,4.5,43,0.00,,,0.00,pywws,2013-04-30 09:30:00,
2013-04-30 10:35:00,57.0,34.2,30.27,West,270,1.6,3.8,42,0.00,,,0.00,pywws,2013-04-30 09:35:00,
2013-04-30 10:40:00,57.0,32.9,30.28,South,180,0.0,1.6,40,0.00,,,0.00,pywws,2013-04-30 09:40:00,
2013-04-30 10:45:00,57.0,33.6,30.27,North,0,1.6,3.8,41,0.00,,,0.00,pywws,2013-04-30 09:45:00,
2013-04-30 10:50:00,57.0,33.6,30.27,NE,45,0.7,2.2,41,0.00,,,0.00,pywws,2013-04-30 09:50:00,
2013-04-30 10:55:00,57.2,34.3,30.28,SE,135,6.0,9.2,42,0.00,,,0.00,pywws,2013-04-30 09:55:00,
2013-04-30 11:00:00,57.0,34.2,30.27,SE,135,6.9,9.2,42,0.00,,,0.00,pywws,2013-04-30 10:00:00,
2013-04-30 11:05:00,56.7,33.8,30.28,SE,135,6.0,9.8,42,0.00,,,0.00,pywws,2013-04-30 10:05:00,
2013-04-30 11:10:00,55.9,32.6,30.28,South,180,8.3,9.8,41,0.00,,,0.00,pywws,2013-04-30 10:10:00,
2013-04-30 11:15:00,55.4,32.7,30.28,East,90,6.9,9.2,42,0.00,,,0.00,pywws,2013-04-30 10:15:00,
2013-04-30 11:20:00,55.0,33.0,30.28,SE,135,6.9,12.1,43,0.00,,,0.00,pywws,2013-04-30 10:20:00,
2013-04-30 11:25:00,55.0,33.0,30.28,SE,135,6.9,11.4,43,0.00,,,0.00,pywws,2013-04-30 10:25:00,
2013-04-30 11:30:00,54.7,32.6,30.28,SE,135,9.2,12.1,43,0.00,,,0.00,pywws,2013-04-30 10:30:00,
2013-04-30 11:35:00,54.5,33.0,30.28,SE,135,7.6,11.4,44,0.00,,,0.00,pywws,2013-04-30 10:35:00,
2013-04-30 11:40:00,54.3,32.9,30.28,East,90,7.6,12.1,44,0.00,,,0.00,pywws,2013-04-30 10:40:00,
2013-04-30 11:45:00,54.3,32.9,30.28,East,90,6.0,13.0,44,0.00,,,0.00,pywws,2013-04-30 10:45:00,
2013-04-30 11:50:00,54.1,32.1,30.28,SE,135,9.2,13.0,43,0.00,,,0.00,pywws,2013-04-30 10:50:00,
2013-04-30 11:55:00,54.1,32.1,30.28,East,90,9.2,13.0,43,0.00,,,0.00,pywws,2013-04-30 10:55:00,
2013-04-30 12:00:00,54.1,31.6,30.28,East,90,7.6,12.1,42,0.00,,,0.00,pywws,2013-04-30 11:00:00,
2013-04-30 12:05:00,54.3,31.1,30.28,East,90,9.2,11.4,41,0.00,,,0.00,pywws,2013-04-30 11:05:00,
2013-04-30 12:10:00,54.3,31.1,30.28,SE,135,6.0,9.2,41,0.00,,,0.00,pywws,2013-04-30 11:10:00,
2013-04-30 12:15:00,54.7,31.4,30.28,East,90,9.2,11.4,41,0.00,,,0.00,pywws,2013-04-30 11:15:00,
2013-04-30 12:20:00,54.9,31.0,30.27,SE,135,8.3,14.5,40,0.00,,,0.00,pywws,2013-04-30 11:20:00,
2013-04-30 12:25:00,55.0,30.5,30.28,SE,135,9.8,12.1,39,0.00,,,0.00,pywws,2013-04-30 11:25:00,
2013-04-30 12:30:00,55.0,30.5,30.27,South,180,9.2,13.6,39,0.00,,,0.00,pywws,2013-04-30 11:30:00,
2013-04-30 12:35:00,55.6,31.6,30.27,South,180,7.6,13.6,40,0.00,,,0.00,pywws,2013-04-30 11:35:00,
2013-04-30 12:40:00,55.8,30.5,30.27,East,90,8.3,12.1,38,0.00,,,0.00,pywws,2013-04-30 11:40:00,
2013-04-30 12:45:00,55.9,30.7,30.27,SE,135,6.9,9.2,38,0.00,,,0.00,pywws,2013-04-30 11:45:00,
2013-04-30 12:50:00,56.1,30.2,30.27,East,90,6.9,9.2,37,0.00,,,0.00,pywws,2013-04-30 11:50:00,
2013-04-30 12:55:00,56.3,30.4,30.27,SE,135,6.9,10.7,37,0.00,,,0.00,pywws,2013-04-30 11:55:00,
2013-04-30 13:00:00,56.7,30.7,30.27,East,90,7.6,11.4,37,0.00,,,0.00,pywws,2013-04-30 12:00:00,
2013-04-30 13:05:00,57.0,30.3,30.27,SE,135,7.6,11.4,36,0.00,,,0.00,pywws,2013-04-30 12:05:00,
2013-04-30 13:10:00,57.2,29.8,30.27,East,90,7.6,10.7,35,0.00,,,0.00,pywws,2013-04-30 12:10:00,
2013-04-30 13:15:00,57.2,29.8,30.27,SE,135,6.0,8.3,35,0.00,,,0.00,pywws,2013-04-30 12:15:00,
2013-04-30 13:20:00,57.6,30.1,30.27,SE,135,6.0,9.8,35,0.00,,,0.00,pywws,2013-04-30 12:20:00,
2013-04-30 13:25:00,57.6,28.7,30.26,SE,135,5.4,9.2,33,0.00,,,0.00,pywws,2013-04-30 12:25:00,
2013-04-30 13:30:00,57.7,29.6,30.27,SE,135,8.3,11.4,34,0.00,,,0.00,pywws,2013-04-30 12:30:00,
2013-04-30 13:35:00,57.7,29.6,30.26,SE,135,5.4,9.2,34,0.00,,,0.00,pywws,2013-04-30 12:35:00,
2013-04-30 13:40:00,57.9,30.4,30.27,SE,135,4.5,6.9,35,0.00,,,0.00,pywws,2013-04-30 12:40:00,
2013-04-30 13:45:00,57.9,31.1,30.27,East,90,6.0,10.7,36,0.00,,,0.00,pywws,2013-04-30 12:45:00,
2013-04-30 13:50:00,57.7,31.0,30.26,SE,135,6.0,9.2,36,0.00,,,0.00,pywws,2013-04-30 12:50:00,
2013-04-30 13:55:00,57.7,30.3,30.26,SE,135,6.9,9.2,35,0.00,,,0.00,pywws,2013-04-30 12:55:00,
2013-04-30 14:00:00,57.7,29.6,30.26,South,180,6.9,12.1,34,0.00,,,0.00,pywws,2013-04-30 13:00:00,
2013-04-30 14:05:00,57.7,29.6,30.26,SE,135,3.8,6.9,34,0.00,,,0.00,pywws,2013-04-30 13:05:00,
2013-04-30 14:10:00,58.3,30.0,30.26,SE,135,6.9,9.8,34,0.00,,,0.00,pywws,2013-04-30 13:10:00,
2013-04-30 14:15:00,58.6,30.4,30.26,WSW,248,6.0,9.8,34,0.00,,,0.00,pywws,2013-04-30 13:15:00,
2013-04-30 14:20:00,59.2,30.8,30.26,East,90,6.9,10.7,34,0.00,,,0.00,pywws,2013-04-30 13:20:00,
2013-04-30 14:25:00,59.5,31.1,30.26,South,180,5.4,9.2,34,0.00,,,0.00,pywws,2013-04-30 13:25:00,
2013-04-30 14:30:00,60.1,30.1,30.25,SE,135,6.9,9.2,32,0.00,,,0.00,pywws,2013-04-30 13:30:00,
2013-04-30 14:35:00,60.3,30.3,30.25,East,90,6.9,12.1,32,0.00,,,0.00,pywws,2013-04-30 13:35:00,
2013-04-30 14:40:00,60.3,29.5,30.25,South,180,4.5,6.9,31,0.00,,,0.00,pywws,2013-04-30 13:40:00,
2013-04-30 14:45:00,60.3,29.5,30.25,SE,135,6.9,11.4,31,0.00,,,0.00,pywws,2013-04-30 13:45:00,
2013-04-30 14:50:00,60.1,28.6,30.25,SE,135,5.4,9.8,30,0.00,,,0.00,pywws,2013-04-30 13:50:00,
2013-04-30 14:55:00,59.9,28.4,30.24,SE,135,6.0,10.7,30,0.00,,,0.00,pywws,2013-04-30 13:55:00,
2013-04-30 15:00:00,59.9,28.4,30.24,SE,135,6.9,9.8,30,0.00,,,0.00,pywws,2013-04-30 14:00:00,
2013-04-30 15:05:00,59.5,27.3,30.24,South,180,8.3,10.7,29,0.00,,,0.00,pywws,2013-04-30 14:05:00,
2013-04-30 15:10:00,59.2,27.8,30.24,SE,135,6.0,9.8,30,0.00,,,0.00,pywws,2013-04-30 14:10:00,
2013-04-30 15:15:00,59.2,28.6,30.24,SE,135,5.4,8.3,31,0.00,,,0.00,pywws,2013-04-30 14:15:00,
2013-04-30 15:20:00,59.4,28.7,30.24,East,90,6.0,8.3,31,0.00,,,0.00,pywws,2013-04-30 14:20:00,
2013-04-30 15:25:00,59.5,28.9,30.24,SE,135,6.9,11.4,31,0.00,,,0.00,pywws,2013-04-30 14:25:00,
2013-04-30 15:30:00,59.9,29.2,30.24,South,180,6.0,9.2,31,0.00,,,0.00,pywws,2013-04-30 14:30:00,
2013-04-30 15:35:00,59.5,29.7,30.24,East,90,3.8,6.0,32,0.00,,,0.00,pywws,2013-04-30 14:35:00,
2013-04-30 15:40:00,58.6,30.4,30.24,East,90,7.6,13.0,34,0.00,,,0.00,pywws,2013-04-30 14:40:00,
2013-04-30 15:45:00,57.4,30.7,30.24,SE,135,7.6,10.7,36,0.00,,,0.00,pywws,2013-04-30 14:45:00,
2013-04-30 15:50:00,56.7,32.0,30.23,SE,135,6.9,9.8,39,0.00,,,0.00,pywws,2013-04-30 14:50:00,
2013-04-30 15:55:00,56.3,32.3,30.23,East,90,8.3,13.0,40,0.00,,,0.00,pywws,2013-04-30 14:55:00,
2013-04-30 16:00:00,55.9,32.6,30.23,SE,135,8.3,12.1,41,0.00,,,0.00,pywws,2013-04-30 15:00:00,
2013-04-30 16:05:00,55.9,32.6,30.22,SE,135,8.3,12.1,41,0.00,,,0.00,pywws,2013-04-30 15:05:00,
2013-04-30 16:10:00,54.5,31.9,30.23,East,90,6.9,10.7,42,0.00,,,0.00,pywws,2013-04-30 15:10:00,
2013-04-30 16:15:00,54.1,32.1,30.22,East,90,6.9,9.2,43,0.00,,,0.00,pywws,2013-04-30 15:15:00,
2013-04-30 16:20:00,54.3,31.7,30.22,East,90,6.9,10.7,42,0.00,,,0.00,pywws,2013-04-30 15:20:00,
2013-04-30 16:25:00,54.1,31.6,30.22,East,90,6.9,11.4,42,0.00,,,0.00,pywws,2013-04-30 15:25:00,
2013-04-30 16:30:00,53.4,31.5,30.22,East,90,5.4,9.2,43,0.00,,,0.00,pywws,2013-04-30 15:30:00,
2013-04-30 16:35:00,53.2,32.5,30.22,East,90,6.9,14.5,45,0.00,,,0.00,pywws,2013-04-30 15:35:00,
2013-04-30 16:40:00,53.2,32.5,30.22,East,90,7.6,13.6,45,0.00,,,0.00,pywws,2013-04-30 15:40:00,
2013-04-30 16:45:00,53.4,32.6,30.22,East,90,6.9,10.7,45,0.00,,,0.00,pywws,2013-04-30 15:45:00,
2013-04-30 16:50:00,53.4,32.1,30.22,East,90,4.5,6.9,44,0.00,,,0.00,pywws,2013-04-30 15:50:00,
2013-04-30 16:55:00,53.2,32.5,30.22,ESE,112,4.5,6.9,45,0.00,,,0.00,pywws,2013-04-30 15:55:00,
2013-04-30 17:00:00,52.7,32.5,30.22,NE,45,4.5,9.2,46,0.00,,,0.00,pywws,2013-04-30 16:00:00,
2013-04-30 17:05:00,52.7,32.5,30.22,NE,45,4.5,9.2,46,0.00,,,0.00,pywws,2013-04-30 16:05:00,
2013-04-30 17:10:00,52.3,33.2,30.22,East,90,3.8,6.9,48,0.00,,,0.00,pywws,2013-04-30 16:10:00,
2013-04-30 17:15:00,52.3,33.8,30.22,East,90,3.8,5.4,49,0.00,,,0.00,pywws,2013-04-30 16:15:00,
2013-04-30 17:20:00,52.7,34.1,30.22,East,90,6.9,10.7,49,0.00,,,0.00,pywws,2013-04-30 16:20:00,
2013-04-30 17:25:00,52.7,34.1,30.22,North,0,5.4,9.2,49,0.00,,,0.00,pywws,2013-04-30 16:25:00,
2013-04-30 17:30:00,52.5,33.9,30.21,East,90,8.3,11.4,49,0.00,,,0.00,pywws,2013-04-30 16:30:00,
2013-04-30 17:35:00,52.3,33.8,30.22,NE,45,3.8,7.6,49,0.00,,,0.00,pywws,2013-04-30 16:35:00,
2013-04-30 17:40:00,52.3,34.3,30.21,East,90,4.5,7.6,50,0.01,,,0.01,pywws,2013-04-30 16:40:00,
2013-04-30 17:45:00,52.3,34.3,30.21,East,90,6.0,9.2,50,0.01,,,0.01,pywws,2013-04-30 16:45:00,
2013-04-30 17:50:00,52.3,34.3,30.21,SE,135,4.5,7.6,50,0.01,,,0.01,pywws,2013-04-30 16:50:00,
2013-04-30 17:55:00,52.3,34.3,30.21,East,90,6.0,8.3,50,0.01,,,0.01,pywws,2013-04-30 16:55:00,
2013-04-30 18:00:00,52.3,34.3,30.21,North,0,4.5,8.3,50,0.01,,,0.01,pywws,2013-04-30 17:00:00,
2013-04-30 18:05:00,52.3,34.3,30.20,North,0,4.5,8.3,50,0.01,,,0.01,pywws,2013-04-30 17:05:00,
2013-04-30 18:10:00,53.2,35.1,30.20,East,90,4.5,6.9,50,0.01,,,0.01,pywws,2013-04-30 17:10:00,
2013-04-30 18:15:00,53.8,35.1,30.20,SE,135,3.8,7.6,49,0.01,,,0.01,pywws,2013-04-30 17:15:00,
2013-04-30 18:20:00,54.1,35.4,30.20,East,90,4.5,7.6,49,0.01,,,0.01,pywws,2013-04-30 17:20:00,
2013-04-30 18:25:00,54.7,35.4,30.20,ESE,112,3.1,6.9,48,0.01,,,0.01,pywws,2013-04-30 17:25:00,
2013-04-30 18:30:00,55.0,35.7,30.20,East,90,1.6,3.1,48,0.01,,,0.01,pywws,2013-04-30 17:30:00,
2013-04-30 18:35:00,55.4,36.0,30.20,East,90,5.4,8.3,48,0.01,,,0.01,pywws,2013-04-30 17:35:00,
2013-04-30 18:40:00,55.4,35.5,30.19,East,90,3.8,5.4,47,0.00,,,0.01,pywws,2013-04-30 17:40:00,
2013-04-30 18:45:00,55.2,34.8,30.20,NE,45,3.8,6.0,46,0.00,,,0.01,pywws,2013-04-30 17:45:00,
2013-04-30 18:50:00,54.9,34.5,30.19,East,90,3.1,3.8,46,0.00,,,0.01,pywws,2013-04-30 17:50:00,
2013-04-30 18:55:00,54.5,34.1,30.19,East,90,3.1,6.0,46,0.00,,,0.01,pywws,2013-04-30 17:55:00,
2013-04-30 19:00:00,54.0,34.2,30.19,SE,135,1.6,3.8,47,0.00,,,0.01,pywws,2013-04-30 18:00:00,
2013-04-30 19:05:00,54.0,34.2,30.19,SE,135,1.6,3.8,47,0.00,,,0.01,pywws,2013-04-30 18:05:00,
2013-04-30 19:10:00,52.9,33.7,30.19,East,90,0.7,3.1,48,0.00,,,0.01,pywws,2013-04-30 18:10:00,
2013-04-30 19:15:00,52.5,33.9,30.19,South,180,1.6,3.8,49,0.00,,,0.01,pywws,2013-04-30 18:15:00,
2013-04-30 19:20:00,52.2,33.6,30.19,SE,135,1.6,3.8,49,0.00,,,0.01,pywws,2013-04-30 18:20:00,
2013-04-30 19:25:00,52.0,33.9,30.19,East,90,2.2,3.8,50,0.00,,,0.01,pywws,2013-04-30 18:25:00,
2013-04-30 19:30:00,51.8,33.8,30.19,NE,45,0.7,2.2,50,0.00,,,0.01,pywws,2013-04-30 18:30:00,
2013-04-30 19:35:00,51.8,33.8,30.19,WSW,248,3.8,6.9,50,0.00,,,0.01,pywws,2013-04-30 18:35:00,
2013-04-30 19:40:00,51.8,33.3,30.19,West,270,3.1,5.4,49,0.00,,,0.01,pywws,2013-04-30 18:40:00,
2013-04-30 19:45:00,52.0,32.4,30.19,WSW,248,3.8,7.6,47,0.00,,,0.01,pywws,2013-04-30 18:45:00,
2013-04-30 19:50:00,52.3,31.6,30.19,South,180,5.4,9.2,45,0.00,,,0.01,pywws,2013-04-30 18:50:00,
2013-04-30 19:55:00,52.5,31.2,30.19,South,180,9.2,13.0,44,0.00,,,0.01,pywws,2013-04-30 18:55:00,
2013-04-30 20:00:00,52.7,31.4,30.19,WSW,248,6.9,9.8,44,0.00,,,0.01,pywws,2013-04-30 19:00:00,
2013-04-30 20:05:00,52.7,30.8,30.19,WSW,248,6.9,15.9,43,0.00,,,0.01,pywws,2013-04-30 19:05:00,
2013-04-30 20:10:00,52.7,30.8,30.19,WSW,248,6.0,12.1,43,0.00,,,0.01,pywws,2013-04-30 19:10:00,
2013-04-30 20:15:00,52.7,30.8,30.19,WSW,248,7.6,12.1,43,0.00,,,0.01,pywws,2013-04-30 19:15:00,
2013-04-30 20:20:00,52.5,31.2,30.19,WSW,248,8.3,14.5,44,0.00,,,0.01,pywws,2013-04-30 19:20:00,
2013-04-30 20:25:00,52.3,31.1,30.19,WSW,248,7.6,11.4,44,0.00,,,0.01,pywws,2013-04-30 19:25:00,
2013-04-30 20:30:00,52.2,31.5,30.19,WSW,248,5.4,8.3,45,0.00,,,0.01,pywws,2013-04-30 19:30:00,
2013-04-30 20:35:00,51.8,31.1,30.19,SE,135,3.8,7.6,45,0.00,,,0.01,pywws,2013-04-30 19:35:00,
2013-04-30 20:40:00,51.6,31.0,30.19,WSW,248,4.5,6.0,45,0.00,,,0.01,pywws,2013-04-30 19:40:00,
2013-04-30 20:45:00,51.4,31.4,30.19,WSW,248,3.8,6.9,46,0.00,,,0.01,pywws,2013-04-30 19:45:00,
2013-04-30 20:50:00,51.1,31.0,30.19,WSW,248,6.0,7.6,46,0.00,,,0.01,pywws,2013-04-30 19:50:00,
2013-04-30 20:55:00,50.9,30.9,30.19,NNE,22,3.8,5.4,46,0.00,,,0.01,pywws,2013-04-30 19:55:00,
2013-04-30 21:00:00,50.7,30.7,30.19,SE,135,3.1,5.4,46,0.00,,,0.01,pywws,2013-04-30 20:00:00,
2013-04-30 21:05:00,50.7,30.7,30.19,SE,135,3.1,5.4,46,0.00,,,0.01,pywws,2013-04-30 20:05:00,
2013-04-30 21:10:00,50.2,30.7,30.19,South,180,3.1,6.0,47,0.00,,,0.01,pywws,2013-04-30 20:10:00,
2013-04-30 21:15:00,50.0,31.1,30.19,WSW,248,4.5,7.6,48,0.00,,,0.01,pywws,2013-04-30 20:15:00,
2013-04-30 21:20:00,49.8,30.9,30.19,South,180,4.5,7.6,48,0.00,,,0.01,pywws,2013-04-30 20:20:00,
2013-04-30 21:23:00,50.0,31.1,30.19,WSW,248,4.5,7.6,48,0.00,,,0.01,pywws,2013-04-30 20:23:00,
2013-04-30 21:24:00,49.5,30.6,30.19,South,180,3.8,9.2,48,0.00,,,0.01,pywws,2013-04-30 20:24:00,
2013-04-30 21:29:00,49.3,30.9,30.20,South,180,3.8,5.4,49,0.00,,,0.01,pywws,2013-04-30 20:29:00,
2013-04-30 21:33:00,49.5,30.6,30.19,South,180,3.8,9.2,48,0.00,,,0.01,pywws,2013-04-30 20:33:00,
2013-04-30 21:34:00,49.3,30.9,30.19,SE,135,2.2,3.8,49,0.00,,,0.01,pywws,2013-04-30 20:34:00,
2013-04-30 21:39:00,49.3,31.4,30.19,South,180,3.8,6.9,50,0.00,,,0.01,pywws,2013-04-30 20:39:00,
2013-04-30 21:42:00,49.3,30.9,30.19,SE,135,2.2,3.8,49,0.00,,,0.01,pywws,2013-04-30 20:42:00,
2013-04-30 21:44:00,49.3,31.4,30.19,South,180,3.8,6.0,50,0.00,,,0.01,pywws,2013-04-30 20:44:00,
2013-04-30 21:49:00,49.3,31.4,30.19,WSW,248,4.5,6.9,50,0.00,,,0.01,pywws,2013-04-30 20:49:00,
2013-04-30 21:54:00,49.3,31.4,30.19,South,180,3.1,5.4,50,0.00,,,0.01,pywws,2013-04-30 20:54:00,
2013-04-30 21:59:00,49.3,31.4,30.20,WSW,248,3.8,6.0,50,0.00,,,0.01,pywws,2013-04-30 20:59:00,
2013-04-30 22:04:00,49.3,31.4,30.19,WSW,248,3.8,6.0,50,0.00,,,0.01,pywws,2013-04-30 21:04:00,
2013-04-30 22:09:00,48.9,31.6,30.19,WSW,248,2.2,3.8,51,0.00,,,0.01,pywws,2013-04-30 21:09:00,
2013-04-30 22:14:00,48.6,31.3,30.19,WSW,248,2.2,3.8,51,0.00,,,0.01,pywws,2013-04-30 21:14:00,
2013-04-30 22:19:00,48.4,31.1,30.19,WSW,248,3.1,4.5,51,0.00,,,0.01,pywws,2013-04-30 21:19:00,
2013-04-30 22:24:00,48.0,30.8,30.19,South,180,0.7,1.6,51,0.00,,,0.01,pywws,2013-04-30 21:24:00,
2013-04-30 22:29:00,47.7,30.9,30.19,South,180,1.6,3.8,52,0.00,,,0.01,pywws,2013-04-30 21:29:00,
2013-04-30 22:34:00,47.5,30.7,30.19,WSW,248,3.1,4.5,52,0.00,,,0.01,pywws,2013-04-30 21:34:00,
2013-04-30 22:39:00,47.3,31.0,30.19,SE,135,1.6,2.2,53,0.00,,,0.01,pywws,2013-04-30 21:39:00,
2013-04-30 22:44:00,46.9,30.7,30.19,SE,135,0.7,3.1,53,0.00,,,0.01,pywws,2013-04-30 21:44:00,
2013-04-30 22:49:00,46.8,31.0,30.19,WSW,248,1.6,3.1,54,0.00,,,0.01,pywws,2013-04-30 21:49:00,
2013-04-30 22:54:00,46.6,30.8,30.19,South,180,1.6,2.2,54,0.00,,,0.01,pywws,2013-04-30 21:54:00,
2013-04-30 22:59:00,46.6,30.8,30.19,South,180,0.0,1.6,54,0.00,,,0.01,pywws,2013-04-30 21:59:00,
2013-04-30 23:04:00,46.6,30.8,30.19,South,180,0.0,1.6,54,0.00,,,0.01,pywws,2013-04-30 22:04:00,
2013-04-30 23:09:00,46.2,31.0,30.18,SE,135,0.0,0.0,55,0.00,,,0.01,pywws,2013-04-30 22:09:00,
2013-04-30 23:14:00,46.2,31.4,30.19,West,270,1.6,3.1,56,0.00,,,0.01,pywws,2013-04-30 22:14:00,
2013-04-30 23:19:00,46.2,31.4,30.19,WSW,248,0.7,2.2,56,0.00,,,0.01,pywws,2013-04-30 22:19:00,
2013-04-30 23:24:00,46.0,31.2,30.19,WSW,248,1.6,3.1,56,0.00,,,0.01,pywws,2013-04-30 22:24:00,
2013-04-30 23:29:00,46.0,31.7,30.18,WSW,248,1.6,3.1,57,0.00,,,0.01,pywws,2013-04-30 22:29:00,
2013-04-30 23:34:00,46.2,31.8,30.19,WSW,248,0.0,0.0,57,0.00,,,0.01,pywws,2013-04-30 22:34:00,
2013-04-30 23:39:00,46.2,31.8,30.19,West,270,1.6,3.1,57,0.00,,,0.01,pywws,2013-04-30 22:39:00,
2013-04-30 23:44:00,46.2,31.8,30.18,WSW,248,0.7,1.6,57,0.00,,,0.01,pywws,2013-04-30 22:44:00,
2013-04-30 23:50:00,46.2,32.3,30.18,WSW,248,0.0,0.7,58,0.00,,,0.01,pywws,2013-04-30 22:50:00,
2013-04-30 23:55:00,46.2,32.3,30.19,WSW,248,1.6,3.1,58,0.00,,,0.01,pywws,2013-04-30 22:55:00,